Regional Weather Roundup
Issued by NWS

Home | Current Version | Previous Version | Graphics & Text | Print | Product List | Glossary On
Versions: 1 2 3 4 5 6 7 8 9 10 11 12 13 14 15 16 17 18 19 20 21 22 23 24 25 26 27 28 29 30 31 32 33 34 35 36 37 38 39 40 41 42 43 44 45 46 47 48 49 50
000
ASUS43 KBIS 170810
RWRND

NORTH DAKOTA REGIONAL WEATHER ROUNDUP
NATIONAL WEATHER SERVICE BISMARCK ND
300 AM CDT TUE OCT 17 2017

NOTE: "FAIR" INDICATES FEW OR NO CLOUDS BELOW 12,000 FEET WITH NO
SIGNIFICANT WEATHER AND/OR OBSTRUCTIONS TO VISIBILITY.


NDZ001>003-009>011-017-170900-
NORTHWEST NORTH DAKOTA

CITY           SKY/WX    TMP DP  RH WIND       PRES   REMARKS
WILLISTON      CLOUDY    40  32  73 SW7       29.89F
MINOT          CLEAR     48  33  56 S9        29.87F
$$

NDZ018>021-031>035-040>046-170900-
SOUTHWEST NORTH DAKOTA

CITY           SKY/WX    TMP DP  RH WIND       PRES   REMARKS
BISMARCK       CLEAR     35  30  82 CALM      29.97F
DICKINSON      CLEAR     43  30  60 S9        29.95F
GARRISON         N/A     41  37  86 CALM      29.92S
HETTINGER ARPT CLOUDY    34  26  72 CALM      30.02F
$$

NDZ004>008-012>016-024-026-027-054-170900-
NORTHEAST NORTH DAKOTA

CITY           SKY/WX    TMP DP  RH WIND       PRES   REMARKS
GRAND FORKS    CLOUDY    39  34  82 SW5       29.90S
DEVILS LAKE    CLOUDY    42  37  82 CALM      29.91F
$$

NDZ022-023-025-028>030-036>039-047>053-170900-
SOUTHEAST NORTH DAKOTA

CITY           SKY/WX    TMP DP  RH WIND       PRES   REMARKS
FARGO          CLOUDY    39  34  82 SW3       29.93S
JAMESTOWN      CLOUDY    42  33  70 NW5       29.94S
$$





USA.gov is the U.S. government's official web portal to all federal, state and local government web resources and services.